Regional Weather Roundup
Issued by NWS

Home | Current Version | Previous Version | Graphics & Text | Print | Product List | Glossary On
Versions: 1 2 3 4 5 6 7 8 9 10 11 12 13 14 15 16 17 18 19 20 21 22 23 24 25 26 27 28 29 30 31 32 33 34 35 36 37 38 39 40 41 42 43 44 45 46 47 48 49 50
000
ASUS45 KBOI 061210
RWRID
WEATHER ROUNDUP FOR IDAHO
NATIONAL WEATHER SERVICE BOISE ID
600 AM MDT WED MAY 06 2015

NOTE: "FAIR" INDICATES FEW OR NO CLOUDS BELOW 12000 FEET
WITH NO SIGNIFICANT WEATHER AND/OR OBSTRUCTIONS TO VISIBILITY

IDZ012-014-061300-
SOUTHWEST IDAHO


CITY           SKY/WX    TMP DP  RH WIND       PRES   REMARKS
BOISE          PTCLDY    42  26  53 NW8       29.88S
CALDWELL       PTCLDY    43  21  42 NW10      29.91F
MOUNTAIN HOME  CLOUDY    45  22  41 NW14      29.85S
$$

IDZ016-017-061300-
SOUTHCENTRAL IDAHO


CITY           SKY/WX    TMP DP  RH WIND       PRES   REMARKS
BURLEY         PTCLDY    45  24  43 W10       29.82S
JEROME         CLOUDY    44  23  43 SW9       29.84S
TWIN FALLS     MOCLDY    45  22  40 S15       29.84S
$$

IDZ019>023-061300-
SOUTHEAST IDAHO


CITY           SKY/WX    TMP DP  RH WIND       PRES   REMARKS
IDAHO FALLS    MOCLDY    45  30  55 S12       29.82R
POCATELLO      MOCLDY    46  23  40 SW13      29.85R
REXBURG        PTCLDY    44  31  60 S8        29.81S
$$

IDZ006-010-011-018-031-032-061300-
CENTRAL IDAHO MOUNTAINS


CITY           SKY/WX    TMP DP  RH WIND       PRES   REMARKS
MCCALL         CLEAR     34  26  72 NW3       29.88S
HAILEY         MOCLDY    43  27  52 NW10G17   29.85S
STANLEY          N/A     23  18  81 CALM      29.90F
SALMON         CLEAR     36  28  75 CALM      29.88S
CHALLIS        CLEAR     36  30  79 E3        29.87S
$$

IDZ002-004-006-007-026-061300-
NORTHERN IDAHO


CITY           SKY/WX    TMP DP  RH WIND       PRES   REMARKS
LEWISTON       CLEAR     39  28  64 SE7       29.98R WCI  34
LOWELL           N/A     41  36  82 CALM      30.00S
COEUR D`ALENE  MOCLDY    37  30  75 SE3       29.95F
MULLAN PASS    CLEAR     33  20  58 CALM      29.92R
$$



USA.gov is the U.S. government's official web portal to all federal, state and local government web resources and services.